Time,TemperatureF,DewpointF,PressureIn,WindDirection,WindDirectionDegrees,WindSpeedMPH,WindSpeedGustMPH,Humidity,HourlyPrecipIn,Conditions,Clouds,dailyrainin,SoftwareType,DateUTC
2013-04-27 00:08:00,53.0,38.0,30.31,South,173,0.0,1.0,57,0.00,,,0.00,weatherlink.com 1.10,2013-04-27 04:08:00,
2013-04-27 00:23:00,52.9,38.0,30.31,South,173,0.0,1.0,58,0.00,,,0.00,weatherlink.com 1.10,2013-04-27 04:23:00,
2013-04-27 00:38:00,52.9,38.0,30.31,South,173,0.0,2.0,57,0.00,,,0.00,weatherlink.com 1.10,2013-04-27 04:38:00,
2013-04-27 00:53:00,52.9,38.0,30.31,South,173,0.0,0.0,58,0.00,,,0.00,weatherlink.com 1.10,2013-04-27 04:53:00,
2013-04-27 01:08:00,52.5,39.0,30.31,South,173,0.0,1.0,60,0.00,,,0.00,weatherlink.com 1.10,2013-04-27 05:08:00,
2013-04-27 01:23:00,52.5,39.0,30.31,South,173,1.0,2.0,60,0.00,,,0.00,weatherlink.com 1.10,2013-04-27 05:23:00,
2013-04-27 01:38:00,52.3,39.0,30.31,South,173,0.0,1.0,60,0.00,,,0.00,weatherlink.com 1.10,2013-04-27 05:38:00,
2013-04-27 01:53:00,52.4,39.0,30.31,South,173,0.0,2.0,61,0.00,,,0.00,weatherlink.com 1.10,2013-04-27 05:53:00,
2013-04-27 02:08:00,52.2,39.0,30.30,South,173,0.0,1.0,61,0.00,,,0.00,weatherlink.com 1.10,2013-04-27 06:08:00,
2013-04-27 02:23:00,52.4,39.0,30.30,South,173,0.0,1.0,61,0.00,,,0.00,weatherlink.com 1.10,2013-04-27 06:23:00,
2013-04-27 02:38:00,52.2,39.0,30.30,South,173,1.0,1.0,61,0.00,,,0.00,weatherlink.com 1.10,2013-04-27 06:38:00,
2013-04-27 02:53:00,52.4,39.0,30.29,South,173,0.0,0.0,61,0.00,,,0.00,weatherlink.com 1.10,2013-04-27 06:53:00,
2013-04-27 03:08:00,52.5,40.0,30.29,South,173,0.0,1.0,62,0.00,,,0.00,weatherlink.com 1.10,2013-04-27 07:08:00,
2013-04-27 03:23:00,52.7,37.0,30.28,South,173,0.0,1.0,56,0.00,,,0.00,weatherlink.com 1.10,2013-04-27 07:23:00,
2013-04-27 03:38:00,53.0,37.0,30.28,South,173,0.0,1.0,55,0.00,,,0.00,weatherlink.com 1.10,2013-04-27 07:38:00,
2013-04-27 03:53:00,52.6,39.0,30.27,South,173,0.0,1.0,60,0.00,,,0.00,weatherlink.com 1.10,2013-04-27 07:53:00,
2013-04-27 04:08:00,52.2,39.0,30.27,South,173,0.0,0.0,61,0.00,,,0.00,weatherlink.com 1.10,2013-04-27 08:08:00,
2013-04-27 04:23:00,52.1,38.0,30.27,South,173,0.0,1.0,59,0.00,,,0.00,weatherlink.com 1.10,2013-04-27 08:23:00,
2013-04-27 04:38:00,52.4,37.0,30.27,South,173,0.0,1.0,56,0.00,,,0.00,weatherlink.com 1.10,2013-04-27 08:38:00,
2013-04-27 04:53:00,52.6,38.0,30.27,South,173,0.0,2.0,57,0.00,,,0.00,weatherlink.com 1.10,2013-04-27 08:53:00,
2013-04-27 05:08:00,52.3,38.0,30.28,South,173,0.0,1.0,59,0.00,,,0.00,weatherlink.com 1.10,2013-04-27 09:08:00,
2013-04-27 05:23:00,51.7,38.0,30.28,South,173,0.0,1.0,60,0.00,,,0.00,weatherlink.com 1.10,2013-04-27 09:23:00,
2013-04-27 05:38:00,51.1,40.0,30.27,South,173,1.0,4.0,65,0.00,,,0.00,weatherlink.com 1.10,2013-04-27 09:38:00,
2013-04-27 05:53:00,50.6,40.0,30.27,South,173,0.0,3.0,66,0.00,,,0.00,weatherlink.com 1.10,2013-04-27 09:53:00,
2013-04-27 06:08:00,50.3,39.0,30.26,South,173,0.0,2.0,66,0.00,,,0.00,weatherlink.com 1.10,2013-04-27 10:08:00,
2013-04-27 06:23:00,50.3,40.0,30.27,South,173,0.0,1.0,68,0.00,,,0.00,weatherlink.com 1.10,2013-04-27 10:23:00,
2013-04-27 06:38:00,50.2,40.0,30.27,South,173,0.0,1.0,68,0.00,,,0.00,weatherlink.com 1.10,2013-04-27 10:38:00,
2013-04-27 06:53:00,50.1,40.0,30.28,South,173,0.0,3.0,69,0.00,,,0.00,weatherlink.com 1.10,2013-04-27 10:53:00,
2013-04-27 07:08:00,49.8,41.0,30.28,South,173,1.0,3.0,72,0.00,,,0.00,weatherlink.com 1.10,2013-04-27 11:08:00,
2013-04-27 07:24:00,49.8,42.0,30.27,South,173,0.0,2.0,74,0.00,,,0.00,weatherlink.com 1.10,2013-04-27 11:24:00,
2013-04-27 07:39:00,49.9,42.0,30.27,South,173,0.0,2.0,74,0.00,,,0.00,weatherlink.com 1.10,2013-04-27 11:39:00,
2013-04-27 07:54:00,49.9,42.0,30.28,South,173,2.0,2.0,75,0.00,,,0.00,weatherlink.com 1.10,2013-04-27 11:54:00,
2013-04-27 08:09:00,50.0,43.0,30.28,South,173,0.0,3.0,76,0.00,,,0.00,weatherlink.com 1.10,2013-04-27 12:09:00,
2013-04-27 08:24:00,50.1,43.0,30.28,South,173,0.0,1.0,76,0.00,,,0.00,weatherlink.com 1.10,2013-04-27 12:24:00,
2013-04-27 08:39:00,50.1,43.0,30.29,South,173,0.0,1.0,76,0.00,,,0.00,weatherlink.com 1.10,2013-04-27 12:39:00,
2013-04-27 08:54:00,50.3,43.0,30.28,South,173,0.0,1.0,75,0.00,,,0.00,weatherlink.com 1.10,2013-04-27 12:54:00,
2013-04-27 09:09:00,51.1,43.0,30.28,South,173,2.0,2.0,74,0.00,,,0.00,weatherlink.com 1.10,2013-04-27 13:09:00,
2013-04-27 09:24:00,51.6,44.0,30.27,South,173,0.0,1.0,74,0.00,,,0.00,weatherlink.com 1.10,2013-04-27 13:24:00,
2013-04-27 09:39:00,51.8,43.0,30.28,South,173,0.0,1.0,72,0.00,,,0.00,weatherlink.com 1.10,2013-04-27 13:39:00,
2013-04-27 09:54:00,52.3,44.0,30.28,South,173,0.0,0.0,72,0.00,,,0.00,weatherlink.com 1.10,2013-04-27 13:54:00,
2013-04-27 10:09:00,52.8,44.0,30.28,South,173,0.0,1.0,72,0.00,,,0.00,weatherlink.com 1.10,2013-04-27 14:09:00,
2013-04-27 10:24:00,53.4,43.0,30.28,South,173,1.0,1.0,68,0.00,,,0.00,weatherlink.com 1.10,2013-04-27 14:24:00,
2013-04-27 10:39:00,52.9,44.0,30.28,South,173,2.0,3.0,73,0.00,,,0.00,weatherlink.com 1.10,2013-04-27 14:39:00,
2013-04-27 10:54:00,53.4,44.0,30.27,South,173,2.0,4.0,71,0.00,,,0.00,weatherlink.com 1.10,2013-04-27 14:54:00,
2013-04-27 11:09:00,52.6,44.0,30.28,South,173,2.0,4.0,72,0.00,,,0.00,weatherlink.com 1.10,2013-04-27 15:09:00,
2013-04-27 11:24:00,53.1,45.0,30.28,South,173,1.0,2.0,73,0.00,,,0.00,weatherlink.com 1.10,2013-04-27 15:24:00,
2013-04-27 11:39:00,52.8,44.0,30.28,South,173,0.0,2.0,73,0.00,,,0.00,weatherlink.com 1.10,2013-04-27 15:39:00,
2013-04-27 11:54:00,52.9,44.0,30.28,South,173,0.0,1.0,72,0.00,,,0.00,weatherlink.com 1.10,2013-04-27 15:54:00,
2013-04-27 12:09:00,53.8,43.0,30.28,South,173,1.0,2.0,68,0.00,,,0.00,weatherlink.com 1.10,2013-04-27 16:09:00,
2013-04-27 12:24:00,52.9,43.0,30.28,South,173,0.0,3.0,69,0.00,,,0.00,weatherlink.com 1.10,2013-04-27 16:24:00,
2013-04-27 12:39:00,52.7,44.0,30.28,South,173,1.0,2.0,72,0.00,,,0.00,weatherlink.com 1.10,2013-04-27 16:39:00,
2013-04-27 12:54:00,52.5,45.0,30.28,South,173,2.0,2.0,76,0.00,,,0.00,weatherlink.com 1.10,2013-04-27 16:54:00,
2013-04-27 13:09:00,51.7,44.0,30.28,South,173,0.0,2.0,76,0.00,,,0.00,weatherlink.com 1.10,2013-04-27 17:09:00,
2013-04-27 13:24:00,51.3,44.0,30.29,South,173,0.0,1.0,76,0.00,,,0.00,weatherlink.com 1.10,2013-04-27 17:24:00,
2013-04-27 13:39:00,51.3,46.0,30.29,South,173,0.0,0.0,82,0.01,,,0.01,weatherlink.com 1.10,2013-04-27 17:39:00,
2013-04-27 13:54:00,50.4,46.0,30.28,South,173,0.0,1.0,84,0.03,,,0.03,weatherlink.com 1.10,2013-04-27 17:54:00,
2013-04-27 14:09:00,50.2,46.0,30.28,South,173,1.0,1.0,85,0.05,,,0.05,weatherlink.com 1.10,2013-04-27 18:09:00,
2013-04-27 14:24:00,50.0,46.0,30.28,South,173,0.0,1.0,86,0.08,,,0.08,weatherlink.com 1.10,2013-04-27 18:24:00,
2013-04-27 14:39:00,49.6,47.0,30.28,South,173,0.0,1.0,90,0.10,,,0.11,weatherlink.com 1.10,2013-04-27 18:39:00,
2013-04-27 14:54:00,49.2,47.0,30.28,South,173,0.0,2.0,91,0.10,,,0.13,weatherlink.com 1.10,2013-04-27 18:54:00,
2013-04-27 15:09:00,49.7,48.0,30.28,South,173,0.0,1.0,92,0.12,,,0.17,weatherlink.com 1.10,2013-04-27 19:09:00,
2013-04-27 15:24:00,49.5,47.0,30.27,South,173,0.0,2.0,92,0.16,,,0.24,weatherlink.com 1.10,2013-04-27 19:24:00,
2013-04-27 15:39:00,50.2,48.0,30.26,South,173,0.0,1.0,93,0.18,,,0.29,weatherlink.com 1.10,2013-04-27 19:39:00,
2013-04-27 15:54:00,50.2,48.0,30.25,South,173,0.0,1.0,92,0.18,,,0.31,weatherlink.com 1.10,2013-04-27 19:54:00,
2013-04-27 16:09:00,50.1,48.0,30.26,South,173,0.0,1.0,92,0.16,,,0.33,weatherlink.com 1.10,2013-04-27 20:09:00,
2013-04-27 16:24:00,50.5,48.0,30.26,South,173,0.0,2.0,92,0.11,,,0.36,weatherlink.com 1.10,2013-04-27 20:24:00,
2013-04-27 16:39:00,50.3,48.0,30.26,South,173,0.0,1.0,92,0.10,,,0.39,weatherlink.com 1.10,2013-04-27 20:39:00,
2013-04-27 16:54:00,50.3,48.0,30.23,South,173,1.0,1.0,93,0.10,,,0.41,weatherlink.com 1.10,2013-04-27 20:54:00,
2013-04-27 17:09:00,50.0,48.0,30.24,South,173,0.0,1.0,93,0.11,,,0.44,weatherlink.com 1.10,2013-04-27 21:09:00,
2013-04-27 17:24:00,49.9,48.0,30.23,South,173,1.0,2.0,93,0.08,,,0.44,weatherlink.com 1.10,2013-04-27 21:24:00,
2013-04-27 17:39:00,50.4,49.0,30.23,South,173,0.0,1.0,94,0.05,,,0.44,weatherlink.com 1.10,2013-04-27 21:39:00,
2013-04-27 17:54:00,49.9,48.0,30.23,South,173,0.0,1.0,94,0.04,,,0.45,weatherlink.com 1.10,2013-04-27 21:54:00,
2013-04-27 18:09:00,49.5,48.0,30.23,South,173,0.0,2.0,94,0.01,,,0.45,weatherlink.com 1.10,2013-04-27 22:09:00,
2013-04-27 18:24:00,49.3,48.0,30.23,South,173,0.0,3.0,94,0.03,,,0.47,weatherlink.com 1.10,2013-04-27 22:24:00,
2013-04-27 18:39:00,49.3,48.0,30.23,South,173,0.0,2.0,94,0.04,,,0.48,weatherlink.com 1.10,2013-04-27 22:39:00,
2013-04-27 18:54:00,49.2,48.0,30.23,South,173,0.0,1.0,94,0.08,,,0.53,weatherlink.com 1.10,2013-04-27 22:54:00,
2013-04-27 19:09:00,48.8,47.0,30.23,South,173,0.0,2.0,94,0.12,,,0.57,weatherlink.com 1.10,2013-04-27 23:09:00,
2013-04-27 19:24:00,48.5,47.0,30.21,South,173,2.0,3.0,95,0.13,,,0.60,weatherlink.com 1.10,2013-04-27 23:24:00,
2013-04-27 19:39:00,48.4,47.0,30.22,South,173,2.0,3.0,95,0.16,,,0.64,weatherlink.com 1.10,2013-04-27 23:39:00,
2013-04-27 19:54:00,48.3,47.0,30.21,South,173,0.0,4.0,95,0.14,,,0.67,weatherlink.com 1.10,2013-04-27 23:54:00,
2013-04-27 20:09:00,48.2,47.0,30.21,South,173,1.0,3.0,95,0.11,,,0.68,weatherlink.com 1.10,2013-04-28 00:09:00,
2013-04-27 20:24:00,48.0,47.0,30.21,South,173,1.0,2.0,95,0.09,,,0.69,weatherlink.com 1.10,2013-04-28 00:24:00,
2013-04-27 20:39:00,47.9,47.0,30.21,South,173,0.0,2.0,95,0.07,,,0.71,weatherlink.com 1.10,2013-04-28 00:39:00,
2013-04-27 20:54:00,47.9,47.0,30.21,South,173,2.0,4.0,95,0.04,,,0.71,weatherlink.com 1.10,2013-04-28 00:54:00,
2013-04-27 21:10:00,47.8,47.0,30.21,South,173,0.0,1.0,95,0.04,,,0.72,weatherlink.com 1.10,2013-04-28 01:10:00,
2013-04-27 21:25:00,47.5,46.0,30.21,South,173,2.0,4.0,95,0.03,,,0.72,weatherlink.com 1.10,2013-04-28 01:25:00,
2013-04-27 21:40:00,47.5,46.0,30.21,South,173,0.0,1.0,95,0.02,,,0.73,weatherlink.com 1.10,2013-04-28 01:40:00,
2013-04-27 21:55:00,47.3,46.0,30.21,South,173,0.0,2.0,95,0.02,,,0.73,weatherlink.com 1.10,2013-04-28 01:55:00,
2013-04-27 22:10:00,47.3,46.0,30.22,South,173,0.0,1.0,95,0.01,,,0.73,weatherlink.com 1.10,2013-04-28 02:10:00,
2013-04-27 22:25:00,47.2,46.0,30.21,South,173,0.0,2.0,95,0.03,,,0.75,weatherlink.com 1.10,2013-04-28 02:25:00,
2013-04-27 22:40:00,47.2,46.0,30.21,South,174,0.0,2.0,94,0.02,,,0.75,weatherlink.com 1.10,2013-04-28 02:40:00,
2013-04-27 22:55:00,47.2,46.0,30.20,South,174,0.0,2.0,94,0.02,,,0.75,weatherlink.com 1.10,2013-04-28 02:55:00,
2013-04-27 23:10:00,47.1,46.0,30.21,South,174,0.0,1.0,94,0.02,,,0.75,weatherlink.com 1.10,2013-04-28 03:10:00,
2013-04-27 23:25:00,47.1,46.0,30.20,South,174,0.0,1.0,94,0.00,,,0.75,weatherlink.com 1.10,2013-04-28 03:25:00,
2013-04-27 23:40:00,47.2,45.0,30.20,South,174,0.0,2.0,93,0.00,,,0.75,weatherlink.com 1.10,2013-04-28 03:40:00,
2013-04-27 23:55:00,47.2,45.0,30.20,South,175,0.0,0.0,93,0.00,,,0.75,weatherlink.com 1.10,2013-04-28 03:55:00,